Location: Étang Rond
(42.7927°N, 1.0661°E)
Time: 01:25:48
(UTC+00:00)

ARGOS - Pass Details

Date: 08 November 2025
Orbit: 819 x 832 km, 98.5° (Epoch: 06 December)

Event Time Altitude Azimuth Distance (km) Brightness Sun altitude
Rises 04:09:07 0° 11° (N) 3,386 6.5 -27.7°
Reaches altitude 10° 04:11:29 10° 9° (N) 2,449 5.7 -27.2°
Enters shadow 04:16:16 65° 332° (NNW) 916 3.2 -26.4°
